HK5VD-30 Weather Reports


time (UTC)temp
F
wind
direction
speed
knots
gust
knots
rain 1hr
in
rain 24hr
in
rain mn
in
humidity
%
barometer
mb
20260507190627 82 0 3.5 0.0 0.00 0.00 0.00 69 1008.0
20260507183626 81 0 3.5 0.0 0.00 0.00 0.00 69 1009.0
20260507180625 80 0 3.5 0.0 0.00 0.00 0.00 69 1010.0
20260507173624 79 0 3.5 0.0 0.00 0.00 0.00 69 1010.0
20260507170623 78 0 3.5 0.0 0.00 0.00 0.00 69 1012.0
20260507163621 76 0 3.5 0.0 0.00 0.00 0.00 69 1013.0
20260507160620 75 0 3.5 0.0 0.00 0.00 0.00 69 1014.0
20260507153619 72 100 2.6 0.0 0.00 0.00 0.00 94 1014.0
20260507150618 71 100 2.6 0.0 0.00 0.00 0.00 94 1015.0
20260507143617 70 100 2.6 0.0 0.00 0.00 0.00 94 1015.0
20260507140616 69 100 2.6 0.0 0.00 0.00 0.00 94 1015.0
20260507133615 68 100 2.6 0.0 0.00 0.00 0.00 94 1015.0
20260507130614 67 0 1.7 0.0 0.00 0.00 0.00 94 1015.0
20260507123613 66 0 1.7 0.0 0.00 0.00 0.00 94 1015.0
20260507120612 65 0 0.9 0.0 0.00 0.00 0.00 94 1014.0
20260507113611 64 0 0.9 0.0 0.00 0.00 0.00 94 1013.0
20260507110610 63 0 0.9 0.0 0.00 0.00 0.00 94 1013.0
20260507103609 72 170 2.6 0.0 0.00 0.00 0.00 88 1013.0
20260507100608 71 170 2.6 0.0 0.00 0.00 0.00 88 1013.0
20260507093607 70 170 2.6 0.0 0.00 0.00 0.00 88 1013.0
20260507090606 69 170 2.6 0.0 0.00 0.00 0.00 88 1013.0
20260507083605 68 70 2.6 0.0 0.00 0.00 0.00 88 1013.0
20260507080604 67 50 2.6 0.0 0.00 0.00 0.00 88 1013.0
20260507073603 73 40 4.3 0.0 0.00 0.00 0.00 94 1013.0
20260507070602 72 40 4.3 0.0 0.00 0.00 0.00 94 1013.0
20260507063601 71 40 4.3 0.0 0.00 0.00 0.00 94 1013.0
20260507060600 70 40 4.3 0.0 0.00 0.00 0.00 94 1013.0
20260507053559 69 40 4.3 0.0 0.00 0.00 0.00 94 1013.0
20260507050558 68 40 3.5 0.0 0.00 0.00 0.00 94 1014.0
20260507043557 67 40 3.5 0.0 0.00 0.00 0.00 94 1014.0
20260507040555 66 40 3.5 0.0 0.00 0.00 0.00 94 1014.0
20260507033554 74 70 4.3 0.0 0.00 0.00 0.00 88 1014.0
20260507030553 73 70 4.3 0.0 0.00 0.00 0.00 88 1014.0
20260507023552 72 70 4.3 0.0 0.00 0.00 0.00 88 1014.0
20260507020551 71 70 4.3 0.0 0.00 0.00 0.00 88 1013.0
20260507013550 77 310 5.2 0.0 0.00 0.00 0.00 73 1013.0
20260507010549 77 310 5.2 0.0 0.00 0.00 0.00 73 1012.0
20260507003548 78 320 7.0 0.0 0.00 0.00 0.00 69 1013.0
20260507000547 78 350 2.6 0.0 0.00 0.00 0.00 78 1011.0
20260506233546 79 350 2.6 0.0 0.00 0.00 0.00 21 1011.0
20260506230545 78 350 2.6 0.0 0.00 0.00 0.00 21 1010.0
20260506223543 80 0 0.9 0.0 0.00 0.00 0.00 74 1010.0
20260506220542 84 100 2.6 0.0 0.00 0.00 0.00 58 1009.0
20260506213541 85 100 3.5 0.0 0.00 0.00 0.00 58 1009.0
20260506210540 84 100 3.5 0.0 0.00 0.00 0.00 58 1008.0
20260506203540 88 180 4.3 0.0 0.00 0.00 0.00 10 1008.0
20260506200538 87 180 4.3 0.0 0.00 0.00 0.00 10 1008.0
20260506193537 86 180 4.3 0.0 0.00 0.00 0.00 10 1008.0